When you browse on this site, cookies collect data to enhance your experience and personalize the content and advertising you see.
Visit our Privacy Policy to learn more. By continuing to use the site, you agree to this use of cookies and data.
  • en France
  • Liste des pays
  • À 7 jours
  • Température de l'eau
  • Carte satellitaire
  • Carte météo
  • Widgets météo
  • user-avatar
    Se connecter

    Météo par heure à Cvetochnaya Balka

    Ce jour, 19 Février, Mardi

    Heure Température Précipitation Vent Pression Humidité
    00:00 -9°C° 0 mm 1 m/s 748 mmHg 92%
    01:00 -9°C° 0 mm 1 m/s 748 mmHg 92%
    02:00 -10°C° 0 mm 1 m/s 748 mmHg 93%
    03:00 -10°C° 0 mm 1 m/s 748 mmHg 93%
    04:00 -10°C° 0 mm 1 m/s 748 mmHg 92%
    05:00 -12°C° 0 mm 2 m/s 748 mmHg 92%
    06:00 -10°C° 0 mm 2 m/s 748 mmHg 92%
    07:00 -10°C° 0 mm 2 m/s 748 mmHg 91%
    08:00 -12°C° 0 mm 3 m/s 748 mmHg 91%
    09:00 -9°C° 0 mm 3 m/s 747 mmHg 89%
    10:00 -8°C° 0 mm 4 m/s 747 mmHg 87%
    11:00 -7°C° 0 mm 5 m/s 747 mmHg 85%
    12:00 -6°C° 0 mm 5 m/s 746 mmHg 84%
    13:00 -5°C° 0 mm 5 m/s 746 mmHg 82%
    14:00 -5°C° 0 mm 5 m/s 745 mmHg 81%
    15:00 -5°C° 0 mm 5 m/s 745 mmHg 82%
    16:00 -6°C° 0 mm 5 m/s 744 mmHg 83%
    17:00 -6°C° 0 mm 5 m/s 744 mmHg 84%
    18:00 -7°C° 0 mm 5 m/s 744 mmHg 85%
    19:00 -7°C° 0 mm 5 m/s 743 mmHg 86%
    20:00 -8°C° 0 mm 5 m/s 743 mmHg 87%
    21:00 -8°C° 0 mm 5 m/s 742 mmHg 86%
    22:00 -8°C° 0 mm 5 m/s 741 mmHg 85%
    23:00 -9°C° 0 mm 6 m/s 741 mmHg 84%

    Demain, 20 Février, Mercredi

    Heure Température Précipitation Vent Pression Humidité
    00:00 -9°C° 0 mm 6 m/s 740 mmHg 86%
    01:00 -8°C° 0 mm 6 m/s 740 mmHg 87%
    02:00 -8°C° 0 mm 6 m/s 739 mmHg 89%
    03:00 -6°C° 0 mm 6 m/s 738 mmHg 89%
    04:00 -6°C° 0 mm 6 m/s 738 mmHg 90%
    05:00 -6°C° 0 mm 7 m/s 737 mmHg 91%
    06:00 -5°C° 0 mm 6 m/s 737 mmHg 91%
    07:00 -4°C° 0 mm 6 m/s 736 mmHg 91%
    08:00 -4°C° 0 mm 6 m/s 736 mmHg 91%
    09:00 -3°C° 0.1 mm 6 m/s 736 mmHg 91%
    10:00 -3°C° 0.1 mm 6 m/s 736 mmHg 91%
    11:00 -3°C° 0.1 mm 6 m/s 735 mmHg 91%
    12:00 -1°C° 0.2 mm 5 m/s 735 mmHg 93%
    13:00 -1°C° 0.2 mm 5 m/s 735 mmHg 94%
    14:00 -1°C° 0.2 mm 5 m/s 735 mmHg 95%
    15:00 -1°C° 0 mm 5 m/s 735 mmHg 94%
    16:00 -1°C° 0 mm 5 m/s 735 mmHg 93%
    17:00 -1°C° 0 mm 5 m/s 735 mmHg 92%
    18:00 -1°C° 0 mm 5 m/s 734 mmHg 92%
    19:00 -1°C° 0 mm 5 m/s 734 mmHg 92%
    20:00 -1°C° 0 mm 5 m/s 734 mmHg 92%
    21:00 -1°C° 0 mm 5 m/s 734 mmHg 92%
    22:00 -1°C° 0 mm 5 m/s 733 mmHg 92%
    23:00 -2°C° 0 mm 6 m/s 733 mmHg 92%

    Après-demain, 21 Février, Jeudi

    Heure Température Précipitation Vent Pression Humidité
    00:00 -2°C° 0.2 mm 6 m/s 733 mmHg 92%
    01:00 -2°C° 0.2 mm 6 m/s 732 mmHg 91%
    02:00 -2°C° 0.2 mm 6 m/s 732 mmHg 90%
    03:00 -3°C° 0.2 mm 6 m/s 732 mmHg 89%
    04:00 -4°C° 0.2 mm 6 m/s 731 mmHg 87%
    05:00 -5°C° 0.2 mm 6 m/s 731 mmHg 85%
    06:00 -6°C° 0 mm 5 m/s 731 mmHg 87%
    07:00 -7°C° 0 mm 4 m/s 732 mmHg 90%
    08:00 -8°C° 0 mm 4 m/s 732 mmHg 92%
    09:00 -7°C° 0.4 mm 5 m/s 732 mmHg 91%
    10:00 -6°C° 0.4 mm 6 m/s 732 mmHg 90%
    11:00 -6°C° 0.4 mm 7 m/s 732 mmHg 88%
    12:00 -6°C° 0.2 mm 7 m/s 733 mmHg 86%
    13:00 -6°C° 0.2 mm 7 m/s 733 mmHg 84%
    14:00 -7°C° 0.2 mm 7 m/s 733 mmHg 82%
    15:00 -6°C° 0 mm 6 m/s 734 mmHg 82%
    16:00 -8°C° 0 mm 6 m/s 734 mmHg 83%
    17:00 -7°C° 0 mm 5 m/s 734 mmHg 83%
    18:00 -8°C° 0.1 mm 6 m/s 735 mmHg 84%
    19:00 -9°C° 0.1 mm 6 m/s 735 mmHg 85%
    20:00 -9°C° 0.1 mm 7 m/s 736 mmHg 85%
    21:00 -9°C° 0 mm 6 m/s 737 mmHg 85%
    22:00 -9°C° 0 mm 6 m/s 737 mmHg 85%
    23:00 -10°C° 0 mm 6 m/s 738 mmHg 85%

    22 Février, Vendredi

    Heure Température Précipitation Vent Pression Humidité
    00:00 -10°C° 0 mm 6 m/s 738 mmHg 85%
    01:00 -11°C° 0 mm 6 m/s 739 mmHg 84%
    02:00 -12°C° 0 mm 6 m/s 739 mmHg 84%
    03:00 -12°C° 0 mm 6 m/s 740 mmHg 84%
    04:00 -14°C° 0 mm 6 m/s 740 mmHg 83%
    05:00 -14°C° 0 mm 6 m/s 741 mmHg 82%
    06:00 -15°C° 0 mm 6 m/s 741 mmHg 82%
    07:00 -15°C° 0 mm 7 m/s 742 mmHg 81%
    08:00 -17°C° 0 mm 7 m/s 743 mmHg 81%
    09:00 -17°C° 0 mm 7 m/s 743 mmHg 79%
    10:00 -15°C° 0 mm 7 m/s 743 mmHg 78%
    11:00 -16°C° 0 mm 8 m/s 744 mmHg 77%
    12:00 -15°C° 0 mm 8 m/s 744 mmHg 75%
    13:00 -15°C° 0 mm 8 m/s 744 mmHg 74%
    14:00 -14°C° 0 mm 7 m/s 744 mmHg 72%
    15:00 -14°C° 0 mm 7 m/s 744 mmHg 75%
    16:00 -14°C° 0 mm 6 m/s 745 mmHg 77%
    17:00 -13°C° 0 mm 5 m/s 745 mmHg 80%
    18:00 -14°C° 0 mm 5 m/s 745 mmHg 80%
    19:00 -14°C° 0 mm 5 m/s 745 mmHg 81%
    20:00 -15°C° 0 mm 5 m/s 746 mmHg 81%
    21:00 -15°C° 0 mm 5 m/s 746 mmHg 83%
    22:00 -15°C° 0 mm 5 m/s 747 mmHg 85%
    23:00 -15°C° 0 mm 5 m/s 747 mmHg 86%

    23 Février, Samedi

    Heure Température Précipitation Vent Pression Humidité
    00:00 -17°C° 0 mm 5 m/s 748 mmHg 86%
    01:00 -17°C° 0 mm 5 m/s 748 mmHg 86%
    02:00 -17°C° 0 mm 4 m/s 748 mmHg 85%
    03:00 -17°C° 0 mm 4 m/s 749 mmHg 86%
    04:00 -17°C° 0 mm 4 m/s 749 mmHg 86%
    05:00 -18°C° 0 mm 5 m/s 749 mmHg 87%
    06:00 -17°C° 0 mm 4 m/s 750 mmHg 87%
    07:00 -17°C° 0 mm 4 m/s 750 mmHg 88%
    08:00 -17°C° 0 mm 4 m/s 751 mmHg 88%
    09:00 -17°C° 0 mm 4 m/s 751 mmHg 87%
    10:00 -17°C° 0 mm 5 m/s 751 mmHg 85%
    11:00 -15°C° 0 mm 5 m/s 751 mmHg 84%
    12:00 -15°C° 0 mm 5 m/s 752 mmHg 83%
    13:00 -14°C° 0 mm 4 m/s 752 mmHg 83%
    14:00 -14°C° 0 mm 4 m/s 752 mmHg 83%
    15:00 -14°C° 0 mm 4 m/s 752 mmHg 84%
    16:00 -13°C° 0 mm 3 m/s 752 mmHg 86%
    17:00 -13°C° 0 mm 3 m/s 752 mmHg 87%
    18:00 -13°C° 0 mm 3 m/s 753 mmHg 88%
    19:00 -13°C° 0 mm 3 m/s 753 mmHg 89%
    20:00 -13°C° 0 mm 3 m/s 753 mmHg 90%
    21:00 -14°C° 0 mm 3 m/s 754 mmHg 91%
    22:00 -15°C° 0 mm 3 m/s 754 mmHg 92%
    23:00 -15°C° 0 mm 3 m/s 754 mmHg 93%

    24 Février, Dimanche

    Heure Température Précipitation Vent Pression Humidité
    00:00 -16°C° 0 mm 3 m/s 754 mmHg 93%
    01:00 -17°C° 0 mm 3 m/s 754 mmHg 93%
    02:00 -17°C° 0 mm 3 m/s 755 mmHg 93%
    03:00 -18°C° 0 mm 3 m/s 755 mmHg 93%
    04:00 -17°C° 0 mm 2 m/s 755 mmHg 93%
    05:00 -18°C° 0 mm 2 m/s 755 mmHg 92%
    06:00 -18°C° 0 mm 2 m/s 755 mmHg 92%
    07:00 -18°C° 0 mm 2 m/s 755 mmHg 91%
    08:00 -18°C° 0 mm 2 m/s 756 mmHg 90%
    09:00 -16°C° 0 mm 2 m/s 756 mmHg 87%
    10:00 -14°C° 0 mm 2 m/s 756 mmHg 84%
    11:00 -13°C° 0 mm 2 m/s 757 mmHg 81%
    12:00 -12°C° 0 mm 2 m/s 756 mmHg 80%
    13:00 -10°C° 0 mm 2 m/s 756 mmHg 79%
    14:00 -9°C° 0 mm 2 m/s 756 mmHg 78%
    15:00 -9°C° 0 mm 1 m/s 756 mmHg 80%
    16:00 -10°C° 0 mm 1 m/s 756 mmHg 83%
    17:00 -11°C° 0 mm 1 m/s 756 mmHg 85%
    18:00 -11°C° 0 mm 1 m/s 756 mmHg 85%
    19:00 -11°C° 0 mm 1 m/s 756 mmHg 85%
    20:00 -11°C° 0 mm 1 m/s 756 mmHg 85%
    21:00 -11°C° 0 mm 1 m/s 756 mmHg 85%
    22:00 -11°C° 0 mm 1 m/s 756 mmHg 86%
    23:00 -13°C° 0 mm 2 m/s 756 mmHg 86%
    Voir plus